Home > Weather > Sibiu > Past weeks

Flag for Romania Weather for the Past 2 Weeks in Sibiu, Romania

Now
48 °F

Rain showers. Broken clouds.


Feels Like: 44 °F
Forecast: 44 / 62 °F
Wind: 10 mph from Southeast

Location: Sibiu Airport

Current Time: May 4, 2016 at 1:43:54 PM

Latest Report: May 4, 2016 at 1:00 PM


Visibility: 2 mi

Pressure: 29.92 "Hg

Humidity: 94%

Dew Point: 46 °F

Location of SibiuLocation

Historic Weather in Sibiu — Graph

°F

Sibiu Temperature Yesterday

Maximum temperature yesterday: 54 °F (at 12:00 AM)
Minimum temperature yesterday: 46 °F (at 6:30 AM)
Average temperature yesterday: 50 °F

High & Low Weather Summary for the Past Weeks

 TemperatureHumidityPressure
High68 °F (Apr 22, 5:00 PM)100% (Apr 20, 4:00 AM)30.33 "Hg (Apr 20, 4:00 AM)
Low30 °F (Apr 27, 3:00 AM)29% (Apr 21, 4:30 PM)29.42 "Hg (Apr 24, 6:00 PM)
Average51 °F73%29.92 "Hg
* Reported Apr 19 12:30 PM — May 4 12:00 Noon, Sibiu, Weather by CustomWeather, © 2016

Note: Actual official high and low records may vary slightly from our data, if they occured in-between our weather recording intervals... More about our weather records

Advertising

Sibiu Weather History for the Previous 24 Hours

Scroll right to see more
 ConditionsComfort  
Time TempWeatherWind HumidityBarometerVisibility
12:00 PM
Wed, May 4
54 °FMore clouds than sun.3 mph72%29.89 "HgN/A
11:00 AM52 °FOvercast.7 mph77%29.86 "HgN/A
10:30 AM48 °FPartly sunny.7 mph94%29.86 "HgN/A
10:00 AM48 °FLight rain. Overcast.2 mph94%29.86 "HgN/A
9:00 AM46 °FLight rain. More clouds than sun.3 mph93%29.86 "Hg4 mi
8:30 AM46 °FLight rain. Overcast.3 mph93%29.86 "Hg6 mi
8:00 AM45 °FLight rain. More clouds than sun.3 mph100%29.86 "Hg4 mi
7:30 AM45 °FLight rain. More clouds than sun.3 mph93%29.86 "Hg4 mi
7:00 AM45 °FLight rain. Mostly cloudy.5 mph100%29.83 "Hg4 mi
6:30 AM45 °FLight rain. Mostly cloudy.6 mph93%29.83 "Hg5 mi
6:00 AM45 °FLight rain. Overcast.No wind93%29.83 "Hg4 mi
5:30 AM45 °FLight rain. Mostly cloudy.No wind93%29.83 "Hg4 mi
5:00 AM45 °FLight rain. Mostly cloudy.2 mph100%29.83 "Hg5 mi
4:00 AM45 °FLight rain. Overcast.3 mph100%29.83 "Hg4 mi
3:00 AM45 °FLight rain. Overcast.2 mph100%29.83 "HgN/A
2:00 AM45 °FLight rain. Passing clouds.1 mph93%29.83 "HgN/A
1:00 AM46 °FOvercast.5 mph87%29.83 "HgN/A
12:00 AM46 °FOvercast.7 mph87%29.83 "HgN/A
11:00 PM
Tue, May 3
46 °FMostly cloudy.9 mph87%29.83 "HgN/A
10:00 PM46 °FOvercast.8 mph87%29.83 "HgN/A
9:00 PM48 °FLight rain. Overcast.2 mph76%29.83 "HgN/A
8:30 PM48 °FLight rain. Overcast.13 mph71%29.83 "HgN/A
8:00 PM50 °FOvercast.6 mph76%29.83 "HgN/A
7:30 PM50 °FPartly sunny.3 mph82%29.83 "HgN/A
7:00 PM50 °FScattered clouds.5 mph82%29.83 "HgN/A
6:30 PM50 °FBroken clouds.7 mph82%29.83 "HgN/A
6:00 PM52 °FBroken clouds.6 mph77%29.83 "HgN/A
5:30 PM52 °FScattered clouds.3 mph77%29.83 "HgN/A
5:00 PM50 °FLight rain. Partly sunny.5 mph88%29.83 "HgN/A
4:30 PM50 °FLight rain. Partly sunny.8 mph88%29.83 "HgN/A
4:00 PM48 °FLight rain. Broken clouds.10 mph94%29.83 "HgN/A
3:30 PM50 °FLight rain. Broken clouds.5 mph76%29.83 "HgN/A
2:30 PM52 °FMostly cloudy.5 mph67%29.86 "HgN/A
2:00 PM52 °FMore clouds than sun.6 mph72%29.86 "HgN/A
1:30 PM52 °FMore clouds than sun.9 mph67%29.86 "Hg6 mi
1:00 PM52 °FLight rain. Mostly cloudy.10 mph67%29.86 "Hg6 mi
Weather by CustomWeather, © 2016

See weather overviewHow to use our weather pages